Location: Jarosław
(50.0191°N, 22.6835°E)
Time: 19:04:19
(UTC+02:00)

ISS - Visible Passes

Search period start: 24 May 2019 00:00
Search period end: 03 June 2019 00:00
Orbit: 408 x 418 km, 51.6° (Epoch: 25 May)

Date Brightness Start Highest point End Pass type
(mag) Time Alt. Az. Time Alt. Az. Time Alt. Az.
24 May -1.4 01:07:43 10° W 01:08:24 14° W 01:08:24 14° W visible
24 May -3.6 21:04:35 10° W 21:07:55 79° NNW 21:11:17 10° ENE visible
24 May -3.5 22:41:26 10° WNW 22:44:46 68° N 22:47:33 14° E visible
25 May -2.7 00:18:09 10° WNW 00:20:21 34° W 00:20:21 34° W visible
25 May -3.3 21:51:53 10° W 21:55:14 64° N 21:58:34 10° E visible
25 May -3.9 23:28:38 10° WNW 23:31:58 69° SSW 23:32:20 61° SSE visible
26 May -3.3 21:02:20 10° W 21:05:40 64° N 21:09:00 10° E visible
26 May -3.8 22:39:07 10° WNW 22:42:29 90° SSW 22:44:21 24° ESE visible
27 May -1.6 00:16:03 10° W 00:17:09 17° W 00:17:09 17° W visible
27 May -3.6 21:49:36 10° WNW 21:52:57 75° NNE 21:56:18 10° E visible
27 May -3.0 23:26:22 10° W 23:29:12 36° SW 23:29:12 36° SW visible
28 May -3.6 22:36:46 10° WNW 22:40:03 54° SSW 22:41:16 33° SE visible
29 May -3.8 21:47:13 10° WNW 21:50:33 75° SSW 21:53:22 14° ESE visible
29 May -1.9 23:24:21 10° W 23:26:10 18° SW 23:26:10 18° SW visible
30 May -2.6 22:34:31 10° W 22:37:28 29° SW 22:38:17 25° S visible
31 May -3.1 21:44:50 10° W 21:48:01 42° SSW 21:50:25 16° SE visible
01 Jun -1.6 22:32:45 10° WSW 22:34:40 14° SW 22:35:24 14° SSW visible
02 Jun -2.1 21:42:39 10° W 21:45:17 22° SW 21:47:36 12° SSE visible
